owner,sensor,date,latitude,longitude,air_pressure(mBar),qcFlag 
COMPS,ioos:station:USF.COMPS:C13:1,2015-04-01T04:05:00Z,26.0630,-83.0730,1018.87,1111122 
COMPS,ioos:station:USF.COMPS:C13:1,2015-04-01T04:35:00Z,26.0630,-83.0730,1018.93,1111122 
COMPS,ioos:station:USF.COMPS:C13:1,2015-04-01T05:05:00Z,26.0630,-83.0730,1018.73,1111122 
COMPS,ioos:station:USF.COMPS:C13:1,2015-04-01T05:35:00Z,26.0630,-83.0730,1018.59,1111122 
COMPS,ioos:station:USF.COMPS:C13:1,2015-04-01T06:05:00Z,26.0630,-83.0730,1018.4,1111122 
COMPS,ioos:station:USF.COMPS:C13:1,2015-04-01T06:35:00Z,26.0630,-83.0730,1018.15,1111122 
COMPS,ioos:station:USF.COMPS:C13:1,2015-04-01T07:05:00Z,26.0630,-83.0730,1017.9,1111122 
COMPS,ioos:station:USF.COMPS:C13:1,2015-04-01T07:35:00Z,26.0630,-83.0730,1017.77,1111122 
COMPS,ioos:station:USF.COMPS:C13:1,2015-04-01T08:05:00Z,26.0630,-83.0730,1017.76,1111122 
COMPS,ioos:station:USF.COMPS:C13:1,2015-04-01T08:35:00Z,26.0630,-83.0730,1017.76,1111122 
COMPS,ioos:station:USF.COMPS:C13:1,2015-04-01T09:05:00Z,26.0630,-83.0730,1017.77,1111122 
COMPS,ioos:station:USF.COMPS:C13:1,2015-04-01T09:35:00Z,26.0630,-83.0730,1017.78,1111122 
COMPS,ioos:station:USF.COMPS:C13:1,2015-04-01T10:05:00Z,26.0630,-83.0730,1017.74,1111122 
COMPS,ioos:station:USF.COMPS:C13:1,2015-04-01T10:35:00Z,26.0630,-83.0730,1017.85,1111122 
COMPS,ioos:station:USF.COMPS:C13:1,2015-04-01T11:05:00Z,26.0630,-83.0730,1018.17,1111122 
COMPS,ioos:station:USF.COMPS:C13:1,2015-04-01T11:35:00Z,26.0630,-83.0730,1018.56,1111122 
COMPS,ioos:station:USF.COMPS:C13:1,2015-04-01T12:05:00Z,26.0630,-83.0730,1018.75,1111122 
COMPS,ioos:station:USF.COMPS:C13:1,2015-04-01T12:35:00Z,26.0630,-83.0730,1019.02,1111122 
COMPS,ioos:station:USF.COMPS:C13:1,2015-04-01T13:05:00Z,26.0630,-83.0730,1018.98,1111122 
COMPS,ioos:station:USF.COMPS:C13:1,2015-04-01T13:35:00Z,26.0630,-83.0730,1019.42,1111122 
COMPS,ioos:station:USF.COMPS:C13:1,2015-04-01T14:05:00Z,26.0630,-83.0730,1019.61,1111122 
COMPS,ioos:station:USF.COMPS:C13:1,2015-04-01T14:35:00Z,26.0630,-83.0730,1019.76,1111122 
COMPS,ioos:station:USF.COMPS:C13:1,2015-04-01T15:05:00Z,26.0630,-83.0730,1019.97,1111122 
COMPS,ioos:station:USF.COMPS:C13:1,2015-04-01T15:35:00Z,26.0630,-83.0730,1020.2,1111122 
COMPS,ioos:station:USF.COMPS:C13:1,2015-04-01T16:05:00Z,26.0630,-83.0730,1020.21,1111122 
COMPS,ioos:station:USF.COMPS:C13:1,2015-04-01T16:35:00Z,26.0630,-83.0730,1019.97,1111122 
COMPS,ioos:station:USF.COMPS:C13:1,2015-04-01T17:05:00Z,26.0630,-83.0730,1019.68,1111122 
COMPS,ioos:station:USF.COMPS:C13:1,2015-04-01T17:35:00Z,26.0630,-83.0730,1019.47,1111122 
COMPS,ioos:station:USF.COMPS:C13:1,2015-04-01T18:05:00Z,26.0630,-83.0730,1018.95,1111122 
COMPS,ioos:station:USF.COMPS:C13:1,2015-04-01T18:35:00Z,26.0630,-83.0730,1018.61,1111122 
COMPS,ioos:station:USF.COMPS:C13:1,2015-04-01T19:05:00Z,26.0630,-83.0730,1018.28,1111122 
COMPS,ioos:station:USF.COMPS:C13:1,2015-04-01T19:35:00Z,26.0630,-83.0730,1017.92,1111122 
COMPS,ioos:station:USF.COMPS:C13:1,2015-04-01T20:05:00Z,26.0630,-83.0730,1017.83,1111122 
COMPS,ioos:station:USF.COMPS:C13:1,2015-04-01T20:35:00Z,26.0630,-83.0730,1017.64,1111122 
COMPS,ioos:station:USF.COMPS:C13:1,2015-04-01T21:05:00Z,26.0630,-83.0730,1017.57,1111122 
COMPS,ioos:station:USF.COMPS:C13:1,2015-04-01T21:35:00Z,26.0630,-83.0730,1017.42,1111122 
COMPS,ioos:station:USF.COMPS:C13:1,2015-04-01T22:05:00Z,26.0630,-83.0730,1017.24,1111122 
COMPS,ioos:station:USF.COMPS:C13:1,2015-04-01T22:35:00Z,26.0630,-83.0730,1017.35,1111122 
COMPS,ioos:station:USF.COMPS:C13:1,2015-04-01T23:05:00Z,26.0630,-83.0730,1017.35,1111122 
COMPS,ioos:station:USF.COMPS:C13:1,2015-04-01T23:35:00Z,26.0630,-83.0730,1017.61,1111122 
COMPS,ioos:station:USF.COMPS:C13:1,2015-04-02T02:05:00Z,26.0630,-83.0730,1018.33,1111122 
COMPS,ioos:station:USF.COMPS:C13:1,2015-04-02T02:35:00Z,26.0630,-83.0730,1018.44,1111122 
COMPS,ioos:station:USF.COMPS:C13:1,2015-04-02T03:05:00Z,26.0630,-83.0730,1018.78,1111122 
COMPS,ioos:station:USF.COMPS:C13:1,2015-04-02T03:35:00Z,26.0630,-83.0730,1018.91,1111122 
COMPS,ioos:station:USF.COMPS:C13:1,2015-04-02T05:05:00Z,26.0630,-83.0730,1019.04,1111122 
COMPS,ioos:station:USF.COMPS:C13:1,2015-04-02T05:35:00Z,26.0630,-83.0730,1019.12,1111122 
COMPS,ioos:station:USF.COMPS:C13:1,2015-04-02T06:05:00Z,26.0630,-83.0730,1019.04,1111122 
COMPS,ioos:station:USF.COMPS:C13:1,2015-04-02T06:35:00Z,26.0630,-83.0730,1018.66,1111122 
COMPS,ioos:station:USF.COMPS:C13:1,2015-04-02T07:05:00Z,26.0630,-83.0730,1018.15,1111122 
COMPS,ioos:station:USF.COMPS:C13:1,2015-04-02T07:35:00Z,26.0630,-83.0730,1018.1,1111122 
COMPS,ioos:station:USF.COMPS:C13:1,2015-04-02T08:05:00Z,26.0630,-83.0730,1018.27,1111122 
COMPS,ioos:station:USF.COMPS:C13:1,2015-04-02T08:35:00Z,26.0630,-83.0730,1017.96,1111122 
COMPS,ioos:station:USF.COMPS:C13:1,2015-04-02T09:05:00Z,26.0630,-83.0730,1018.16,1111122 
COMPS,ioos:station:USF.COMPS:C13:1,2015-04-02T09:35:00Z,26.0630,-83.0730,1018.1,1111122 
COMPS,ioos:station:USF.COMPS:C13:1,2015-04-02T10:05:00Z,26.0630,-83.0730,1018.44,1111122 
COMPS,ioos:station:USF.COMPS:C13:1,2015-04-02T10:35:00Z,26.0630,-83.0730,1018.73,1111122 
COMPS,ioos:station:USF.COMPS:C13:1,2015-04-02T11:05:00Z,26.0630,-83.0730,1018.99,1111122 
COMPS,ioos:station:USF.COMPS:C13:1,2015-04-02T11:35:00Z,26.0630,-83.0730,1019.31,1111122 
COMPS,ioos:station:USF.COMPS:C13:1,2015-04-02T12:05:00Z,26.0630,-83.0730,1019.41,1111122 
COMPS,ioos:station:USF.COMPS:C13:1,2015-04-02T12:35:00Z,26.0630,-83.0730,1019.65,1111122 
COMPS,ioos:station:USF.COMPS:C13:1,2015-04-02T13:05:00Z,26.0630,-83.0730,1020.15,1111122 
COMPS,ioos:station:USF.COMPS:C13:1,2015-04-02T13:35:00Z,26.0630,-83.0730,1020.48,1111122 
COMPS,ioos:station:USF.COMPS:C13:1,2015-04-02T14:05:00Z,26.0630,-83.0730,1020.69,1111122 
COMPS,ioos:station:USF.COMPS:C13:1,2015-04-02T14:35:00Z,26.0630,-83.0730,1020.87,1111122 
COMPS,ioos:station:USF.COMPS:C13:1,2015-04-02T15:05:00Z,26.0630,-83.0730,1021.05,1111122 
COMPS,ioos:station:USF.COMPS:C13:1,2015-04-02T15:35:00Z,26.0630,-83.0730,1021.09,1111122 
COMPS,ioos:station:USF.COMPS:C13:1,2015-04-02T16:05:00Z,26.0630,-83.0730,1020.94,1111122 
COMPS,ioos:station:USF.COMPS:C13:1,2015-04-02T16:35:00Z,26.0630,-83.0730,1020.69,1111122 
COMPS,ioos:station:USF.COMPS:C13:1,2015-04-02T17:05:00Z,26.0630,-83.0730,1020.64,1111122 
COMPS,ioos:station:USF.COMPS:C13:1,2015-04-02T17:35:00Z,26.0630,-83.0730,1020.33,1111122 
COMPS,ioos:station:USF.COMPS:C13:1,2015-04-02T18:05:00Z,26.0630,-83.0730,1020.0,1111122 
COMPS,ioos:station:USF.COMPS:C13:1,2015-04-02T18:35:00Z,26.0630,-83.0730,1019.8,1111122 
COMPS,ioos:station:USF.COMPS:C13:1,2015-04-02T19:05:00Z,26.0630,-83.0730,1019.5,1111122 
COMPS,ioos:station:USF.COMPS:C13:1,2015-04-02T19:35:00Z,26.0630,-83.0730,1019.07,1111122 
COMPS,ioos:station:USF.COMPS:C13:1,2015-04-02T20:05:00Z,26.0630,-83.0730,1018.65,1111122 
COMPS,ioos:station:USF.COMPS:C13:1,2015-04-02T20:35:00Z,26.0630,-83.0730,1018.51,1111122 
COMPS,ioos:station:USF.COMPS:C13:1,2015-04-02T21:05:00Z,26.0630,-83.0730,1018.37,1111122 
COMPS,ioos:station:USF.COMPS:C13:1,2015-04-02T21:35:00Z,26.0630,-83.0730,1018.31,1111122 
COMPS,ioos:station:USF.COMPS:C13:1,2015-04-02T22:05:00Z,26.0630,-83.0730,1018.37,1111122 
COMPS,ioos:station:USF.COMPS:C13:1,2015-04-02T22:35:00Z,26.0630,-83.0730,1018.43,1111122 
COMPS,ioos:station:USF.COMPS:C13:1,2015-04-02T23:05:00Z,26.0630,-83.0730,1018.42,1111122 
COMPS,ioos:station:USF.COMPS:C13:1,2015-04-02T23:35:00Z,26.0630,-83.0730,1018.6,1111122 
COMPS,ioos:station:USF.COMPS:C13:1,2015-04-03T04:05:00Z,26.0630,-83.0730,1020.0,1111122 
COMPS,ioos:station:USF.COMPS:C13:1,2015-04-03T04:35:00Z,26.0630,-83.0730,1019.99,1111122 
COMPS,ioos:station:USF.COMPS:C13:1,2015-04-03T05:05:00Z,26.0630,-83.0730,1019.82,1111122 
COMPS,ioos:station:USF.COMPS:C13:1,2015-04-03T05:35:00Z,26.0630,-83.0730,1019.41,1111122 
COMPS,ioos:station:USF.COMPS:C13:1,2015-04-03T06:05:00Z,26.0630,-83.0730,1018.89,1111122 
COMPS,ioos:station:USF.COMPS:C13:1,2015-04-03T06:35:00Z,26.0630,-83.0730,1018.66,1111122 
COMPS,ioos:station:USF.COMPS:C13:1,2015-04-03T07:05:00Z,26.0630,-83.0730,1018.04,1111122 
COMPS,ioos:station:USF.COMPS:C13:1,2015-04-03T07:35:00Z,26.0630,-83.0730,1017.7,1111122 
COMPS,ioos:station:USF.COMPS:C13:1,2015-04-03T09:05:00Z,26.0630,-83.0730,1017.15,1111122 
COMPS,ioos:station:USF.COMPS:C13:1,2015-04-03T09:35:00Z,26.0630,-83.0730,1017.32,1111122 
COMPS,ioos:station:USF.COMPS:C13:1,2015-04-03T10:05:00Z,26.0630,-83.0730,1017.36,1111122 
COMPS,ioos:station:USF.COMPS:C13:1,2015-04-03T10:35:00Z,26.0630,-83.0730,1017.46,1111122 
COMPS,ioos:station:USF.COMPS:C13:1,2015-04-03T11:05:00Z,26.0630,-83.0730,1017.61,1111122 
COMPS,ioos:station:USF.COMPS:C13:1,2015-04-03T11:35:00Z,26.0630,-83.0730,1017.92,1111122 
COMPS,ioos:station:USF.COMPS:C13:1,2015-04-03T12:05:00Z,26.0630,-83.0730,1018.18,1111122 
COMPS,ioos:station:USF.COMPS:C13:1,2015-04-03T12:35:00Z,26.0630,-83.0730,1018.68,1111122 
COMPS,ioos:station:USF.COMPS:C13:1,2015-04-03T13:05:00Z,26.0630,-83.0730,1019.25,1111122 
COMPS,ioos:station:USF.COMPS:C13:1,2015-04-03T13:35:00Z,26.0630,-83.0730,1019.58,1111122 
COMPS,ioos:station:USF.COMPS:C13:1,2015-04-03T14:05:00Z,26.0630,-83.0730,1019.51,1111122 
COMPS,ioos:station:USF.COMPS:C13:1,2015-04-03T14:35:00Z,26.0630,-83.0730,1019.63,1111122 
COMPS,ioos:station:USF.COMPS:C13:1,2015-04-03T15:05:00Z,26.0630,-83.0730,1019.62,1111122 
COMPS,ioos:station:USF.COMPS:C13:1,2015-04-03T15:35:00Z,26.0630,-83.0730,1019.44,1111122 
COMPS,ioos:station:USF.COMPS:C13:1,2015-04-03T16:05:00Z,26.0630,-83.0730,1019.33,1111122 
COMPS,ioos:station:USF.COMPS:C13:1,2015-04-03T16:35:00Z,26.0630,-83.0730,1019.41,1111122 
COMPS,ioos:station:USF.COMPS:C13:1,2015-04-03T17:05:00Z,26.0630,-83.0730,1019.11,1111122 
COMPS,ioos:station:USF.COMPS:C13:1,2015-04-03T17:35:00Z,26.0630,-83.0730,1018.99,1111122 
COMPS,ioos:station:USF.COMPS:C13:1,2015-04-03T18:05:00Z,26.0630,-83.0730,1018.92,1111122 
COMPS,ioos:station:USF.COMPS:C13:1,2015-04-03T18:35:00Z,26.0630,-83.0730,1018.51,1111122 
COMPS,ioos:station:USF.COMPS:C13:1,2015-04-03T19:05:00Z,26.0630,-83.0730,1018.18,1111122 
COMPS,ioos:station:USF.COMPS:C13:1,2015-04-03T19:35:00Z,26.0630,-83.0730,1017.86,1111122 
COMPS,ioos:station:USF.COMPS:C13:1,2015-04-03T20:05:00Z,26.0630,-83.0730,1017.41,1111122 
COMPS,ioos:station:USF.COMPS:C13:1,2015-04-03T20:35:00Z,26.0630,-83.0730,1017.34,1111122 
COMPS,ioos:station:USF.COMPS:C13:1,2015-04-03T21:05:00Z,26.0630,-83.0730,1017.22,1111122 
COMPS,ioos:station:USF.COMPS:C13:1,2015-04-03T21:35:00Z,26.0630,-83.0730,1017.42,1111122 
COMPS,ioos:station:USF.COMPS:C13:1,2015-04-03T22:05:00Z,26.0630,-83.0730,1017.27,1111122 
COMPS,ioos:station:USF.COMPS:C13:1,2015-04-03T22:35:00Z,26.0630,-83.0730,1017.17,1111122 
COMPS,ioos:station:USF.COMPS:C13:1,2015-04-03T23:05:00Z,26.0630,-83.0730,1017.18,1111122 
COMPS,ioos:station:USF.COMPS:C13:1,2015-04-03T23:35:00Z,26.0630,-83.0730,1017.19,1111122 
COMPS,ioos:station:USF.COMPS:C13:1,2015-04-04T00:05:00Z,26.0630,-83.0730,1017.29,1111122 
COMPS,ioos:station:USF.COMPS:C13:1,2015-04-04T00:35:00Z,26.0630,-83.0730,1017.41,1111122 
COMPS,ioos:station:USF.COMPS:C13:1,2015-04-04T04:05:00Z,26.0630,-83.0730,1017.7,1111122 
COMPS,ioos:station:USF.COMPS:C13:1,2015-04-04T04:35:00Z,26.0630,-83.0730,1017.55,1111122 
COMPS,ioos:station:USF.COMPS:C13:1,2015-04-04T05:05:00Z,26.0630,-83.0730,1017.45,1111122 
COMPS,ioos:station:USF.COMPS:C13:1,2015-04-04T05:35:00Z,26.0630,-83.0730,1017.08,1111122 
COMPS,ioos:station:USF.COMPS:C13:1,2015-04-04T06:05:00Z,26.0630,-83.0730,1016.78,1111122 
COMPS,ioos:station:USF.COMPS:C13:1,2015-04-04T06:35:00Z,26.0630,-83.0730,1016.2,1111122 
COMPS,ioos:station:USF.COMPS:C13:1,2015-04-04T07:05:00Z,26.0630,-83.0730,1016.12,1111122 
COMPS,ioos:station:USF.COMPS:C13:1,2015-04-04T07:35:00Z,26.0630,-83.0730,1015.93,1111122 
COMPS,ioos:station:USF.COMPS:C13:1,2015-04-04T08:05:00Z,26.0630,-83.0730,1015.93,1111122 
COMPS,ioos:station:USF.COMPS:C13:1,2015-04-04T08:35:00Z,26.0630,-83.0730,1015.97,1111122 
COMPS,ioos:station:USF.COMPS:C13:1,2015-04-04T09:05:00Z,26.0630,-83.0730,1016.23,1111122 
COMPS,ioos:station:USF.COMPS:C13:1,2015-04-04T09:35:00Z,26.0630,-83.0730,1016.43,1111122 
COMPS,ioos:station:USF.COMPS:C13:1,2015-04-04T10:05:00Z,26.0630,-83.0730,1016.77,1111122 
COMPS,ioos:station:USF.COMPS:C13:1,2015-04-04T10:35:00Z,26.0630,-83.0730,1017.21,1111122 
COMPS,ioos:station:USF.COMPS:C13:1,2015-04-04T11:05:00Z,26.0630,-83.0730,1017.44,1111122 
COMPS,ioos:station:USF.COMPS:C13:1,2015-04-04T11:35:00Z,26.0630,-83.0730,1017.65,1111122 
COMPS,ioos:station:USF.COMPS:C13:1,2015-04-04T12:05:00Z,26.0630,-83.0730,1017.9,1111122 
COMPS,ioos:station:USF.COMPS:C13:1,2015-04-04T12:35:00Z,26.0630,-83.0730,1018.3,1111122 
COMPS,ioos:station:USF.COMPS:C13:1,2015-04-04T13:05:00Z,26.0630,-83.0730,1018.5,1111122 
COMPS,ioos:station:USF.COMPS:C13:1,2015-04-04T13:35:00Z,26.0630,-83.0730,1018.64,1111122 
COMPS,ioos:station:USF.COMPS:C13:1,2015-04-04T14:05:00Z,26.0630,-83.0730,1018.81,1111122 
COMPS,ioos:station:USF.COMPS:C13:1,2015-04-04T14:35:00Z,26.0630,-83.0730,1018.89,1111122 
COMPS,ioos:station:USF.COMPS:C13:1,2015-04-04T15:05:00Z,26.0630,-83.0730,1018.92,1111122 
COMPS,ioos:station:USF.COMPS:C13:1,2015-04-04T15:35:00Z,26.0630,-83.0730,1018.92,1111122 
COMPS,ioos:station:USF.COMPS:C13:1,2015-04-04T16:05:00Z,26.0630,-83.0730,1018.92,1111122 
COMPS,ioos:station:USF.COMPS:C13:1,2015-04-04T16:35:00Z,26.0630,-83.0730,1018.9,1111122 
COMPS,ioos:station:USF.COMPS:C13:1,2015-04-04T17:05:00Z,26.0630,-83.0730,1018.89,1111122 
COMPS,ioos:station:USF.COMPS:C13:1,2015-04-04T17:35:00Z,26.0630,-83.0730,1018.51,1111122 
COMPS,ioos:station:USF.COMPS:C13:1,2015-04-04T18:05:00Z,26.0630,-83.0730,1018.18,1111122 
COMPS,ioos:station:USF.COMPS:C13:1,2015-04-04T18:35:00Z,26.0630,-83.0730,1017.76,1111122 
COMPS,ioos:station:USF.COMPS:C13:1,2015-04-04T19:05:00Z,26.0630,-83.0730,1017.41,1111122 
COMPS,ioos:station:USF.COMPS:C13:1,2015-04-04T19:35:00Z,26.0630,-83.0730,1017.29,1111122 
COMPS,ioos:station:USF.COMPS:C13:1,2015-04-04T20:05:00Z,26.0630,-83.0730,1016.93,1111122 
COMPS,ioos:station:USF.COMPS:C13:1,2015-04-04T20:35:00Z,26.0630,-83.0730,1016.62,1111122 
COMPS,ioos:station:USF.COMPS:C13:1,2015-04-04T21:05:00Z,26.0630,-83.0730,1016.52,1111122 
COMPS,ioos:station:USF.COMPS:C13:1,2015-04-04T21:35:00Z,26.0630,-83.0730,1016.62,1111122 
COMPS,ioos:station:USF.COMPS:C13:1,2015-04-04T22:05:00Z,26.0630,-83.0730,1016.75,1111122 
COMPS,ioos:station:USF.COMPS:C13:1,2015-04-04T22:35:00Z,26.0630,-83.0730,1016.81,1111122 
COMPS,ioos:station:USF.COMPS:C13:1,2015-04-04T23:05:00Z,26.0630,-83.0730,1016.81,1111122 
COMPS,ioos:station:USF.COMPS:C13:1,2015-04-04T23:35:00Z,26.0630,-83.0730,1016.94,1111122 
COMPS,ioos:station:USF.COMPS:C13:1,2015-04-05T00:05:00Z,26.0630,-83.0730,1017.15,1111122 
COMPS,ioos:station:USF.COMPS:C13:1,2015-04-05T00:35:00Z,26.0630,-83.0730,1017.15,1111122 
COMPS,ioos:station:USF.COMPS:C13:1,2015-04-05T01:05:00Z,26.0630,-83.0730,1017.1,1111122 
COMPS,ioos:station:USF.COMPS:C13:1,2015-04-05T01:35:00Z,26.0630,-83.0730,1017.38,1111122 
COMPS,ioos:station:USF.COMPS:C13:1,2015-04-05T02:05:00Z,26.0630,-83.0730,1017.7,1111122 
COMPS,ioos:station:USF.COMPS:C13:1,2015-04-05T02:35:00Z,26.0630,-83.0730,1017.97,1111122 
COMPS,ioos:station:USF.COMPS:C13:1,2015-04-05T03:05:00Z,26.0630,-83.0730,1017.95,1111122 
COMPS,ioos:station:USF.COMPS:C13:1,2015-04-05T03:35:00Z,26.0630,-83.0730,1017.82,1111122 
COMPS,ioos:station:USF.COMPS:C13:1,2015-04-05T04:05:00Z,26.0630,-83.0730,1017.56,1111122 
COMPS,ioos:station:USF.COMPS:C13:1,2015-04-05T04:35:00Z,26.0630,-83.0730,1017.38,1111122 
COMPS,ioos:station:USF.COMPS:C13:1,2015-04-05T05:05:00Z,26.0630,-83.0730,1017.08,1111122 
COMPS,ioos:station:USF.COMPS:C13:1,2015-04-05T05:35:00Z,26.0630,-83.0730,1016.93,1111122 
COMPS,ioos:station:USF.COMPS:C13:1,2015-04-05T06:05:00Z,26.0630,-83.0730,1016.74,1111122 
COMPS,ioos:station:USF.COMPS:C13:1,2015-04-05T06:35:00Z,26.0630,-83.0730,1016.3,1111122 
COMPS,ioos:station:USF.COMPS:C13:1,2015-04-05T07:05:00Z,26.0630,-83.0730,1016.1,1111122 
COMPS,ioos:station:USF.COMPS:C13:1,2015-04-05T07:35:00Z,26.0630,-83.0730,1015.86,1111122 
COMPS,ioos:station:USF.COMPS:C13:1,2015-04-05T08:05:00Z,26.0630,-83.0730,1015.71,1111122 
COMPS,ioos:station:USF.COMPS:C13:1,2015-04-05T08:35:00Z,26.0630,-83.0730,1015.66,1111122 
COMPS,ioos:station:USF.COMPS:C13:1,2015-04-05T09:05:00Z,26.0630,-83.0730,1015.73,1111122 
COMPS,ioos:station:USF.COMPS:C13:1,2015-04-05T09:35:00Z,26.0630,-83.0730,1015.73,1111122 
COMPS,ioos:station:USF.COMPS:C13:1,2015-04-05T10:05:00Z,26.0630,-83.0730,1015.73,1111122 
COMPS,ioos:station:USF.COMPS:C13:1,2015-04-05T10:35:00Z,26.0630,-83.0730,1015.95,1111122 
COMPS,ioos:station:USF.COMPS:C13:1,2015-04-05T11:05:00Z,26.0630,-83.0730,1016.25,1111122 
COMPS,ioos:station:USF.COMPS:C13:1,2015-04-05T11:35:00Z,26.0630,-83.0730,1016.48,1111122 
COMPS,ioos:station:USF.COMPS:C13:1,2015-04-05T12:05:00Z,26.0630,-83.0730,1016.72,1111122 
COMPS,ioos:station:USF.COMPS:C13:1,2015-04-05T12:35:00Z,26.0630,-83.0730,1017.04,1111122 
COMPS,ioos:station:USF.COMPS:C13:1,2015-04-05T13:05:00Z,26.0630,-83.0730,1017.31,1111122 
COMPS,ioos:station:USF.COMPS:C13:1,2015-04-05T13:35:00Z,26.0630,-83.0730,1017.5,1111122 
COMPS,ioos:station:USF.COMPS:C13:1,2015-04-05T14:05:00Z,26.0630,-83.0730,1017.63,1111122 
COMPS,ioos:station:USF.COMPS:C13:1,2015-04-05T14:35:00Z,26.0630,-83.0730,1017.89,1111122 
COMPS,ioos:station:USF.COMPS:C13:1,2015-04-05T15:05:00Z,26.0630,-83.0730,1018.15,1111122 
COMPS,ioos:station:USF.COMPS:C13:1,2015-04-05T15:35:00Z,26.0630,-83.0730,1018.12,1111122 
COMPS,ioos:station:USF.COMPS:C13:1,2015-04-05T16:05:00Z,26.0630,-83.0730,1018.15,1111122 
COMPS,ioos:station:USF.COMPS:C13:1,2015-04-05T16:35:00Z,26.0630,-83.0730,1017.94,1111122 
COMPS,ioos:station:USF.COMPS:C13:1,2015-04-05T17:05:00Z,26.0630,-83.0730,1017.62,1111122 
COMPS,ioos:station:USF.COMPS:C13:1,2015-04-05T17:35:00Z,26.0630,-83.0730,1017.33,1111122 
COMPS,ioos:station:USF.COMPS:C13:1,2015-04-05T18:05:00Z,26.0630,-83.0730,1017.15,1111122 
COMPS,ioos:station:USF.COMPS:C13:1,2015-04-05T18:35:00Z,26.0630,-83.0730,1016.72,1111122 
COMPS,ioos:station:USF.COMPS:C13:1,2015-04-05T19:05:00Z,26.0630,-83.0730,1016.37,1111122 
COMPS,ioos:station:USF.COMPS:C13:1,2015-04-05T19:35:00Z,26.0630,-83.0730,1016.11,1111122 
COMPS,ioos:station:USF.COMPS:C13:1,2015-04-05T20:05:00Z,26.0630,-83.0730,1015.83,1111122 
COMPS,ioos:station:USF.COMPS:C13:1,2015-04-05T20:35:00Z,26.0630,-83.0730,1015.73,1111122 
COMPS,ioos:station:USF.COMPS:C13:1,2015-04-05T21:05:00Z,26.0630,-83.0730,1015.7,1111122 
COMPS,ioos:station:USF.COMPS:C13:1,2015-04-05T21:35:00Z,26.0630,-83.0730,1015.65,1111122 
COMPS,ioos:station:USF.COMPS:C13:1,2015-04-05T22:05:00Z,26.0630,-83.0730,1015.36,1111122 
COMPS,ioos:station:USF.COMPS:C13:1,2015-04-05T22:35:00Z,26.0630,-83.0730,1015.53,1111122 
COMPS,ioos:station:USF.COMPS:C13:1,2015-04-05T23:05:00Z,26.0630,-83.0730,1015.53,1111122 
COMPS,ioos:station:USF.COMPS:C13:1,2015-04-05T23:35:00Z,26.0630,-83.0730,1015.66,1111122 
COMPS,ioos:station:USF.COMPS:C13:1,2015-04-06T00:05:00Z,26.0630,-83.0730,1015.86,1111122 
COMPS,ioos:station:USF.COMPS:C13:1,2015-04-06T00:35:00Z,26.0630,-83.0730,1016.22,1111122 
COMPS,ioos:station:USF.COMPS:C13:1,2015-04-06T01:05:00Z,26.0630,-83.0730,1016.55,1111122 
COMPS,ioos:station:USF.COMPS:C13:1,2015-04-06T01:35:00Z,26.0630,-83.0730,1016.75,1111122 
COMPS,ioos:station:USF.COMPS:C13:1,2015-04-06T04:05:00Z,26.0630,-83.0730,1017.51,1111122 
COMPS,ioos:station:USF.COMPS:C13:1,2015-04-06T04:35:00Z,26.0630,-83.0730,1017.63,1111122 
COMPS,ioos:station:USF.COMPS:C13:1,2015-04-06T05:05:00Z,26.0630,-83.0730,1017.77,1111122 
COMPS,ioos:station:USF.COMPS:C13:1,2015-04-06T05:35:00Z,26.0630,-83.0730,1017.58,1111122 
COMPS,ioos:station:USF.COMPS:C13:1,2015-04-06T06:05:00Z,26.0630,-83.0730,1017.28,1111122 
COMPS,ioos:station:USF.COMPS:C13:1,2015-04-06T06:35:00Z,26.0630,-83.0730,1017.05,1111122 
COMPS,ioos:station:USF.COMPS:C13:1,2015-04-06T07:05:00Z,26.0630,-83.0730,1016.75,1111122 
COMPS,ioos:station:USF.COMPS:C13:1,2015-04-06T07:35:00Z,26.0630,-83.0730,1016.69,1111122 
COMPS,ioos:station:USF.COMPS:C13:1,2015-04-06T08:05:00Z,26.0630,-83.0730,1016.46,1111122 
COMPS,ioos:station:USF.COMPS:C13:1,2015-04-06T08:35:00Z,26.0630,-83.0730,1016.2,1111122 
COMPS,ioos:station:USF.COMPS:C13:1,2015-04-06T09:05:00Z,26.0630,-83.0730,1016.2,1111122 
COMPS,ioos:station:USF.COMPS:C13:1,2015-04-06T09:35:00Z,26.0630,-83.0730,1016.43,1111122 
COMPS,ioos:station:USF.COMPS:C13:1,2015-04-06T10:05:00Z,26.0630,-83.0730,1016.6,1111122 
COMPS,ioos:station:USF.COMPS:C13:1,2015-04-06T10:35:00Z,26.0630,-83.0730,1016.75,1111122 
COMPS,ioos:station:USF.COMPS:C13:1,2015-04-06T11:05:00Z,26.0630,-83.0730,1017.08,1111122 
COMPS,ioos:station:USF.COMPS:C13:1,2015-04-06T11:35:00Z,26.0630,-83.0730,1017.51,1111122 
COMPS,ioos:station:USF.COMPS:C13:1,2015-04-06T12:05:00Z,26.0630,-83.0730,1017.88,1111122 
COMPS,ioos:station:USF.COMPS:C13:1,2015-04-06T12:35:00Z,26.0630,-83.0730,1018.12,1111122 
COMPS,ioos:station:USF.COMPS:C13:1,2015-04-06T13:05:00Z,26.0630,-83.0730,1018.51,1111122 
COMPS,ioos:station:USF.COMPS:C13:1,2015-04-06T13:35:00Z,26.0630,-83.0730,1018.5,1111122 
COMPS,ioos:station:USF.COMPS:C13:1,2015-04-06T14:05:00Z,26.0630,-83.0730,1018.66,1111122 
COMPS,ioos:station:USF.COMPS:C13:1,2015-04-06T14:35:00Z,26.0630,-83.0730,1018.9,1111122 
COMPS,ioos:station:USF.COMPS:C13:1,2015-04-06T15:05:00Z,26.0630,-83.0730,1019.46,1111122 
COMPS,ioos:station:USF.COMPS:C13:1,2015-04-06T15:35:00Z,26.0630,-83.0730,1019.66,1111122 
COMPS,ioos:station:USF.COMPS:C13:1,2015-04-06T16:05:00Z,26.0630,-83.0730,1019.86,1111122 
COMPS,ioos:station:USF.COMPS:C13:1,2015-04-06T16:35:00Z,26.0630,-83.0730,1019.6,1111122 
COMPS,ioos:station:USF.COMPS:C13:1,2015-04-06T17:05:00Z,26.0630,-83.0730,1019.2,1111122 
COMPS,ioos:station:USF.COMPS:C13:1,2015-04-06T17:35:00Z,26.0630,-83.0730,1018.93,1111122 
COMPS,ioos:station:USF.COMPS:C13:1,2015-04-06T18:05:00Z,26.0630,-83.0730,1018.63,1111122 
COMPS,ioos:station:USF.COMPS:C13:1,2015-04-06T18:35:00Z,26.0630,-83.0730,1018.54,1111122 
COMPS,ioos:station:USF.COMPS:C13:1,2015-04-06T19:05:00Z,26.0630,-83.0730,1018.17,1111122 
COMPS,ioos:station:USF.COMPS:C13:1,2015-04-06T19:35:00Z,26.0630,-83.0730,1018.09,1111122 
COMPS,ioos:station:USF.COMPS:C13:1,2015-04-06T20:05:00Z,26.0630,-83.0730,1017.71,1111122 
COMPS,ioos:station:USF.COMPS:C13:1,2015-04-06T20:35:00Z,26.0630,-83.0730,1017.42,1111122 
COMPS,ioos:station:USF.COMPS:C13:1,2015-04-06T21:05:00Z,26.0630,-83.0730,1017.21,1111122 
COMPS,ioos:station:USF.COMPS:C13:1,2015-04-06T21:35:00Z,26.0630,-83.0730,1017.26,1111122 
COMPS,ioos:station:USF.COMPS:C13:1,2015-04-06T22:05:00Z,26.0630,-83.0730,1016.93,1111122 
COMPS,ioos:station:USF.COMPS:C13:1,2015-04-06T22:35:00Z,26.0630,-83.0730,1016.89,1111122 
COMPS,ioos:station:USF.COMPS:C13:1,2015-04-06T23:05:00Z,26.0630,-83.0730,1016.93,1111122 
COMPS,ioos:station:USF.COMPS:C13:1,2015-04-06T23:35:00Z,26.0630,-83.0730,1016.86,1111122 
COMPS,ioos:station:USF.COMPS:C13:1,2015-04-07T00:05:00Z,26.0630,-83.0730,1017.25,1111122 
COMPS,ioos:station:USF.COMPS:C13:1,2015-04-07T00:35:00Z,26.0630,-83.0730,1017.59,1111122 
COMPS,ioos:station:USF.COMPS:C13:1,2015-04-07T03:05:00Z,26.0630,-83.0730,1018.63,1111122 
COMPS,ioos:station:USF.COMPS:C13:1,2015-04-07T03:35:00Z,26.0630,-83.0730,1018.83,1111122 
COMPS,ioos:station:USF.COMPS:C13:1,2015-04-07T04:05:00Z,26.0630,-83.0730,1018.9,1111122 
COMPS,ioos:station:USF.COMPS:C13:1,2015-04-07T04:35:00Z,26.0630,-83.0730,1018.63,1111122 
COMPS,ioos:station:USF.COMPS:C13:1,2015-04-07T05:05:00Z,26.0630,-83.0730,1018.54,1111122 
COMPS,ioos:station:USF.COMPS:C13:1,2015-04-07T05:35:00Z,26.0630,-83.0730,1018.3,1111122 
COMPS,ioos:station:USF.COMPS:C13:1,2015-04-07T06:05:00Z,26.0630,-83.0730,1017.97,1111122 
COMPS,ioos:station:USF.COMPS:C13:1,2015-04-07T06:35:00Z,26.0630,-83.0730,1017.77,1111122 
COMPS,ioos:station:USF.COMPS:C13:1,2015-04-07T07:05:00Z,26.0630,-83.0730,1017.36,1111122 
COMPS,ioos:station:USF.COMPS:C13:1,2015-04-07T07:35:00Z,26.0630,-83.0730,1017.39,1111122 